Regional Weather Roundup
Issued by NWS

Home | Current Version | Previous Version | Graphics & Text | Print | Product List | Glossary On
Versions: 1 2 3 4 5 6 7 8 9 10 11 12 13 14 15 16 17 18 19 20 21 22 23 24 25 26 27 28 29 30 31 32 33 34 35 36 37 38 39 40 41 42 43 44 45 46 47 48 49 50
000
ASUS43 KMPX 300801
RWRMN
WEATHER ROUNDUP FOR MINNESOTA
NATIONAL WEATHER SERVICE TWIN CITIES/CHANHASSEN MN
300 AM CDT TUE MAY 30 2017


NOTE: "FAIR" INDICATES FEW OR NO CLOUDS BELOW 12,000 FEET WITH NO
SIGNIFICANT WEATHER AND/OR OBSTRUCTIONS TO VISIBILITY. N/A MEANS
CURRENT SKY AND/OR WEATHER CONDITIONS ARE NOT AVAILABLE.

MNZ060>063-068>070-300900-
   Twin Cities Metro

CITY           SKY/WX    TMP DP  RH WIND       PRES   REMARKS
TWIN CITIES    MOCLDY    54  44  69 W9        29.86F
ST PAUL        MOCLDY    54  46  74 W8        29.86F
CRYSTAL        MOCLDY    53  44  71 W9        29.85F
BLAINE         MOCLDY    55  46  71 W7        29.85F
LAKEVILLE      CLEAR     50  45  81 W6        29.88S
EDEN PRAIRIE   PTCLDY    52  44  74 W7        29.86F
SOUTH ST PAUL  MOCLDY    54  45  71 W8        29.85F
LAKE ELMO      CLOUDY    54  46  76 W9        29.86F
$$
MNZ001>005-007-008-013>017-022>024-027-028-300900-
   Northwest Minnesota

CITY           SKY/WX    TMP DP  RH WIND       PRES   REMARKS
BEMIDJI        CLOUDY    41  40  94 NW12      29.84S
HALLOCK        CLOUDY    45  43  93 NW13      29.89F
ROSEAU         DRIZZLE   43  37  81 NW10      29.84S
WARROAD        LGT RAIN  43  39  87 W8        29.83S
CROOKSTON      CLOUDY    45  43  93 N17       29.91R
FOSSTON        CLOUDY    43  39  87 NW8       29.88S
DETROIT LAKES  LGT RAIN  45  43  93 NW13      29.90S
MOORHEAD       CLOUDY    48  43  81 NW10      29.93S
PARK RAPIDS    CLOUDY    45  40  82 NW14      29.85S
MAHNOMEN       RAIN      43  42  97 NW8       29.89R
$$
MNZ006-009>011-018-025>026-300900-
   North Central Minnesota

CITY           SKY/WX    TMP DP  RH WIND       PRES   REMARKS
BAUDETTE       LGT RAIN  43  43 100 NW12      29.80S
FLAG ISLAND    CLOUDY    45  43  93 NW16      29.80R
INTL FALLS     CLOUDY    45  42  89 NW6       29.76S FOG
WASKISH        DRIZZLE   45  41  87 NW12G20   29.81S
BIG FORK       CLOUDY    45  39  81 W5        29.79S
LONGVILLE      CLOUDY    45  39  81 W9        29.82S
GRAND RAPIDS   LGT RAIN  45  39  79 NW13      29.81S
CRANE LAKE     CLOUDY    45  41  87 CALM      29.76F
ORR            CLOUDY    45  37  76 NW9       29.74S
COOK           CLOUDY    45  39  81 W7        29.77S
WALKER         DRIZZLE   41  40  97 NW9       29.84S
$$
MNZ012-019>021-037-300900-
   Northeast Minnesota

CITY           SKY/WX    TMP DP  RH WIND       PRES   REMARKS
DULUTH         CLOUDY    47  44  90 W12       29.75F
ELY            CLOUDY    45  39  81 W8        29.74S
HIBBING        CLOUDY    44  38  79 NW8       29.77S
EVELETH        CLOUDY    46  36  68 W8        29.77S
DULUTH HARBOR  CLOUDY    52  46  82 W10       29.77F
TWO HARBORS    CLOUDY    52  43  71 W6        29.73S
SILVER BAY     CLOUDY    48  43  81 CALM      29.72S
GRAND MARAIS     N/A     46  40  79 SW10      29.68S
G MARAIS ARPRT CLOUDY    45  37  76 W6G16     29.69S
$$
MNZ029>031-032-039>041-046>048-054>057-064-300900-
   West Central Minnesota

CITY           SKY/WX    TMP DP  RH WIND       PRES   REMARKS
FERGUS FALLS   CLOUDY    48  45  87 N9        29.90F
WHEATON        CLOUDY    52  45  76 W6        29.94S
MORRIS         CLOUDY    52  45  76 NW12      29.90F
ALEXANDRIA     CLOUDY    49  45  86 NW14      29.90S
ELBOW LAKE     CLOUDY    48  45  89 N9        29.92R
WADENA         CLOUDY    45  43  93 NW15      29.87S
GLENWOOD       CLOUDY    50  46  87 W12       29.90S
APPLETON       PTCLDY    52  46  82 W7        29.92S
BENSON         CLOUDY    54  46  76 NW7       29.93S
ORTONVILLE     CLOUDY    54  43  66 NW10G16   29.93S
MADISON        MOCLDY    54  45  71 W8        29.93S
WILLMAR        CLOUDY    54  46  76 NW9       29.92S
$$
MNZ033>034-036-042>043-049>051-058-059-300900-
   Central Minnesota

CITY           SKY/WX    TMP DP  RH WIND       PRES   REMARKS
ST CLOUD       MOCLDY    51  45  79 NW17G24   29.86S
SAUK CENTRE    CLOUDY    50  43  78 W10       29.88F
PAYNESVILLE    CLOUDY    51  43  75 W7        29.90S
AITKIN         CLOUDY    45  43  93 NW5       29.81S
PINE RIVER     DRIZZLE   45  41  87 NW7       29.88R
BRAINERD       CLOUDY    48  41  76 NW13      29.84S
STAPLES        CLOUDY    46  39  76 NW12      29.86S
LONG PRAIRIE   CLOUDY    46  41  81 W8        29.88S
LITTLE FALLS   CLOUDY    50  39  66 W12G17    29.86S
LITCHFIELD     CLOUDY    55  46  71 NW8       29.89F
BUFFALO        MOCLDY    51  45  78 W9        29.88S
MAPLE LAKE     CLOUDY    52  47  82 W12G17    29.88S
HUTCHINSON     CLOUDY    53  47  79 W10       29.90F
$$
MNZ037-044-045-052-053-300900-
   East Central Minnesota

CITY           SKY/WX    TMP DP  RH WIND       PRES   REMARKS
PRINCETON      CLOUDY    52  46  82 W16       29.84F
MORA           CLOUDY    50  45  81 W5        29.84S
CAMBRIDGE      CLOUDY    54  45  71 W8        29.81F
RUSH CITY      CLOUDY    51  45  79 W8        29.83S
MOOSE LAKE     CLOUDY    46  41  81 NW7       29.79R
HINCKLEY       CLOUDY    52  43  71 W6        29.81S
CLOQUET        CLOUDY    46  41  81 W10G17    29.78S
MCGREGOR       CLOUDY    45  43  93 W6        29.81F
$$
MNZ071>073-080-081-089-090-097-098-300900-
   Southwest Minnesota

CITY           SKY/WX    TMP DP  RH WIND       PRES   REMARKS
MONTEVIDEO     CLEAR     52  45  76 NW5       29.92S
CANBY          MOCLDY    54  43  66 NW10      29.95S
MARSHALL       CLOUDY    52  44  74 W12       29.95R
REDWOOD FALLS  CLOUDY    53  44  71 W9        29.92F
OLIVIA         PTCLDY    50  43  76 W7        29.91S
PIPESTONE      CLOUDY    50  41  71 W5        29.98R
WINDOM         CLOUDY    48  45  87 W8        29.95F
WORTHINGTON    CLOUDY    50  43  77 SW9       29.98F
JACKSON        MOCLDY    46  43  87 CALM      29.97S
TRACY          CLOUDY    54  46  74 W7        29.95S
SLAYTON        CLOUDY    51  43  72 W9        29.97F
$$
MNZ065>067-074>077-082>085-091>093-300900-
   South Central Minnesota

CITY           SKY/WX    TMP DP  RH WIND       PRES   REMARKS
MANKATO        PTCLDY    51  45  79 W8        29.92S
NEW ULM        PTCLDY    48  45  87 W7        29.92S
ST JAMES       CLOUDY    52  45  76 W9        29.94F
FAIRMONT       MOCLDY    50  45  83 W9        29.95S
GLENCOE        MOCLDY    53  48  83 W5        29.89S
FARIBAULT      CLOUDY    54  46  76 W8        29.90S
OWATONNA       CLOUDY    52  46  82 SW10      29.90S
WASECA         CLOUDY    52  46  82 SW9       29.93R
ALBERT LEA     CLOUDY    54  48  82 W6        29.93S
$$
MNZ078>079-086>088-094>096-300900-
   Southeast Minnesota

CITY           SKY/WX    TMP DP  RH WIND       PRES   REMARKS
ROCHESTER      CLEAR     49  45  86 W14       29.90F
RED WING       MOCLDY    54  45  71 W7        29.86R
STANTON        MOCLDY    53  46  74 W8        29.88R
DODGE CENTER   CLOUDY    48  45  87 W10       29.90S
WINONA         CLEAR     54  46  76 W8        29.87S
AUSTIN         MOCLDY    52  46  82 W8        29.92S
PRESTON        CLEAR     49  44  83 W10       29.91S
$$
ABBREVIATIONS USED IN REMARKS
   TC - TEMPERATURES IN CELSIUS
  WCI - WIND CHILL INDEX
   HX - HEAT INDEX
  VSB - VISIBILITY
$$



USA.gov is the U.S. government's official web portal to all federal, state and local government web resources and services.